YAOGAN 23               
1 40305U 14071A   19266.12444897  .00000252  00000-0  15729-4 0  9995
2 40305  97.4951 202.6042 0001407  50.6400  74.9880 15.17977353269025
CZ-2C R/B               
1 40306U 14071B   19265.85982257  .00002266  00000-0  52148-4 0  9995
2 40306  97.2903 205.9160 0018127  65.2468 295.0664 15.43550641272421